#timestamp,LO_Frequency,Hit,StdDev 
1596752875.6,286047017.5,P
1596752895.4,286047020.1,P
1596752915.3,286047018.9,P
1596752935.1,286047021.8,Y
1596752936.0,286047021.8,P
1596752955.8,286047002.3,N
1596752975.7,286047001.5,N
1596752995.5,286047001.5,N
1596753015.4,286047001.8,N
1596753035.2,286047003.6,N
1596753055.0,286047001.7,N
1596753055.9,286047001.7,N
1596753075.8,286047004.0,N
1596753095.6,286047001.3,N
1596753115.4,286047003.2,N
1596753135.3,286047003.9,N
1596753155.1,286047004.2,N
1596753175.9,286047005.4,N
1596753195.7,286047005.9,N
1596753215.5,286047007.4,N
1596753235.4,286047005.0,N
1596753255.2,286047007.0,N
1596753275.0,286047007.1,N
1596753276.0,286047007.1,N
1596753295.8,286047006.6,N
1596753315.6,286047006.8,N
1596753335.5,286047008.8,N
1596753355.3,286047008.9,N
1596753375.1,286047010.6,N
1596753395.9,286047008.3,N
1596753415.7,286047008.3,N
1596753435.6,286047007.7,N
1596753455.4,286047008.4,N
1596753475.2,286047007.7,N
1596753495.1,286047010.2,N
1596753496.0,286047010.2,Y
1596753515.8,286047005.3,P
1596753535.6,286047004.7,P
1596753555.5,286047005.2,P
1596753575.3,286047007.6,Y
1596753595.2,286047002.0,P
1596753615.9,286047002.7,N
1596753635.7,286047001.4,N
1596753655.6,286047001.5,N
1596753675.4,286047004.4,Y
1596753695.2,286047000.6,P
1596753715.1,286047001.0,N
1596753716.0,286047001.0,N
1596753735.8,286047000.6,N
1596753755.7,286047002.4,Y
1596753775.5,286047000.0,P
1596753795.3,286047000.5,N
1596753815.2,286047001.1,N
1596753835.0,286047001.1,N
1596753835.9,286047001.1,N
1596753855.8,286047000.0,N
1596753875.6,286047000.3,N
1596753895.4,286047002.5,Y
1596753915.3,286047002.7,P
1596753935.1,286047002.7,N
1596753955.8,286047002.4,N
1596753975.7,286047000.2,N
1596753995.5,286047002.6,N
1596754015.4,286047001.4,N
1596754035.2,286047001.3,N
1596754055.0,286047003.6,Y
1596754055.9,286047003.6,P
1596754075.8,286047004.4,P
1596754095.6,286047004.2,P
1596754115.5,286047003.8,Y
1596754135.3,286046998.9,P
1596754155.1,286046998.3,N
1596754175.9,286047001.1,N
1596754195.7,286047001.2,N
1596754215.5,286047000.8,N
1596754235.4,286047000.9,N
1596754255.2,286047000.0,N
1596754275.1,286047000.2,N
1596754276.0,286047000.2,N
1596754295.8,286047002.6,N
1596754315.6,286047002.4,N
1596754335.5,286047002.0,N
1596754355.3,286047002.5,N
1596754375.1,286047002.0,N
1596754395.9,286047001.4,N
1596754415.7,286047001.7,N
1596754435.6,286047001.5,N
1596754455.4,286047004.4,Y
1596754475.2,286047004.3,P
1596754495.1,286047004.2,N
1596754496.0,286047004.2,N
1596754515.8,286047003.7,N
1596754535.7,286047003.8,Y
1596754555.5,286047000.8,P
1596754575.3,286046998.2,N
1596754595.2,286047000.5,N
1596754615.0,286047000.9,N
1596754615.9,286047000.9,N
1596754635.8,286047000.0,N
1596754655.6,286047002.5,N
1596754675.4,286047002.8,N
1596754695.3,286047002.8,N
1596754715.1,286046999.8,N
1596754735.8,286047000.2,N
1596754755.7,286046999.8,N
1596754775.5,286047001.9,N
1596754795.4,286047004.3,N
